When you browse on this site, cookies collect data to enhance your experience and personalize the content and advertising you see.
Visit our Privacy Policy to learn more. By continuing to use the site, you agree to this use of cookies and data.
  • En España
  • Lista de países
  • Para 7 días
  • Temperatura del agua
  • El tiempo en el mapa
  • Informadores
  • user-avatar
    Iniciar sesión

    Tiempo cada hora Stafford

    Hoy, 21 Septiembre, Sábado

    Tiempo Temperatura Precipitaciones Viento Presión Humedad
    00:00 +11°C° 0 mm 4 mps 755 mmHg 79%
    01:00 +10°C° 0 mm 5 mps 755 mmHg 79%
    02:00 +10°C° 0 mm 5 mps 754 mmHg 80%
    03:00 +10°C° 0 mm 5 mps 753 mmHg 80%
    04:00 +10°C° 0 mm 5 mps 753 mmHg 80%
    05:00 +10°C° 0 mm 5 mps 752 mmHg 81%
    06:00 +10°C° 0 mm 5 mps 752 mmHg 81%
    07:00 +12°C° 0 mm 5 mps 752 mmHg 77%
    08:00 +13°C° 0 mm 5 mps 751 mmHg 72%
    09:00 +15°C° 0 mm 6 mps 751 mmHg 68%
    10:00 +16°C° 0 mm 6 mps 751 mmHg 64%
    11:00 +19°C° 0 mm 6 mps 750 mmHg 61%
    12:00 +20°C° 0 mm 6 mps 750 mmHg 58%
    13:00 +21°C° 0 mm 6 mps 749 mmHg 58%
    14:00 +21°C° 0 mm 5 mps 749 mmHg 57%
    15:00 +22°C° 0 mm 5 mps 748 mmHg 57%
    16:00 +21°C° 0 mm 5 mps 748 mmHg 62%
    17:00 +20°C° 0 mm 5 mps 747 mmHg 66%
    18:00 +19°C° 0 mm 5 mps 747 mmHg 70%
    19:00 +17°C° 0 mm 5 mps 747 mmHg 71%
    20:00 +17°C° 0 mm 5 mps 747 mmHg 71%
    21:00 +17°C° 0 mm 4 mps 747 mmHg 72%
    22:00 +17°C° 0.1 mm 4 mps 746 mmHg 75%
    23:00 +17°C° 0.1 mm 4 mps 746 mmHg 77%

    Mañana, 22 Septiembre, Domingo

    Tiempo Temperatura Precipitaciones Viento Presión Humedad
    00:00 +15°C° 0.1 mm 4 mps 745 mmHg 80%
    01:00 +15°C° 0.2 mm 4 mps 745 mmHg 82%
    02:00 +15°C° 0.2 mm 4 mps 744 mmHg 84%
    03:00 +16°C° 0.2 mm 3 mps 744 mmHg 86%
    04:00 +15°C° 0.1 mm 4 mps 743 mmHg 88%
    05:00 +15°C° 0.1 mm 4 mps 743 mmHg 89%
    06:00 +15°C° 0.1 mm 4 mps 743 mmHg 90%
    07:00 +17°C° 0 mm 4 mps 743 mmHg 89%
    08:00 +18°C° 0 mm 4 mps 743 mmHg 87%
    09:00 +19°C° 0 mm 4 mps 742 mmHg 85%
    10:00 +17°C° 0.4 mm 5 mps 743 mmHg 86%
    11:00 +17°C° 0.4 mm 5 mps 743 mmHg 86%
    12:00 +16°C° 0.4 mm 5 mps 743 mmHg 87%
    13:00 +17°C° 0.3 mm 4 mps 743 mmHg 86%
    14:00 +17°C° 0.3 mm 4 mps 743 mmHg 85%
    15:00 +17°C° 0.3 mm 4 mps 743 mmHg 83%
    16:00 +17°C° 0 mm 4 mps 743 mmHg 84%
    17:00 +16°C° 0 mm 3 mps 743 mmHg 85%
    18:00 +16°C° 0 mm 3 mps 743 mmHg 86%
    19:00 +14°C° 0 mm 3 mps 743 mmHg 88%
    20:00 +13°C° 0 mm 3 mps 743 mmHg 90%
    21:00 +14°C° 0 mm 2 mps 744 mmHg 92%
    22:00 +13°C° 0 mm 2 mps 744 mmHg 93%
    23:00 +13°C° 0 mm 2 mps 744 mmHg 94%

    Pasado mañana, 23 Septiembre, Lunes

    Tiempo Temperatura Precipitaciones Viento Presión Humedad
    00:00 +13°C° 0 mm 2 mps 744 mmHg 96%
    01:00 +12°C° 0.1 mm 3 mps 745 mmHg 95%
    02:00 +12°C° 0.1 mm 3 mps 745 mmHg 95%
    03:00 +12°C° 0.1 mm 4 mps 745 mmHg 94%
    04:00 +12°C° 0 mm 4 mps 746 mmHg 93%
    05:00 +12°C° 0 mm 4 mps 746 mmHg 91%
    06:00 +11°C° 0 mm 4 mps 746 mmHg 90%
    07:00 +12°C° 0 mm 4 mps 746 mmHg 87%
    08:00 +13°C° 0 mm 4 mps 746 mmHg 84%
    09:00 +14°C° 0 mm 4 mps 747 mmHg 81%
    10:00 +15°C° 0 mm 4 mps 747 mmHg 76%
    11:00 +16°C° 0 mm 5 mps 746 mmHg 71%
    12:00 +17°C° 0 mm 5 mps 746 mmHg 66%
    13:00 +16°C° 0.1 mm 6 mps 746 mmHg 71%
    14:00 +16°C° 0.1 mm 6 mps 745 mmHg 75%
    15:00 +15°C° 0.1 mm 6 mps 745 mmHg 79%
    16:00 +15°C° 0.7 mm 7 mps 744 mmHg 84%
    17:00 +14°C° 0.7 mm 7 mps 744 mmHg 88%
    18:00 +12°C° 0.7 mm 7 mps 743 mmHg 92%
    19:00 +14°C° 0.3 mm 7 mps 743 mmHg 93%
    20:00 +14°C° 0.3 mm 6 mps 743 mmHg 94%
    21:00 +15°C° 0.3 mm 6 mps 743 mmHg 94%
    22:00 +15°C° 0.2 mm 5 mps 742 mmHg 94%
    23:00 +15°C° 0.2 mm 5 mps 742 mmHg 95%

    24 Septiembre, Martes

    Tiempo Temperatura Precipitaciones Viento Presión Humedad
    00:00 +15°C° 0.2 mm 4 mps 742 mmHg 95%
    01:00 +15°C° 0 mm 4 mps 742 mmHg 95%
    02:00 +14°C° 0 mm 4 mps 742 mmHg 96%
    03:00 +14°C° 0 mm 4 mps 741 mmHg 96%
    04:00 +14°C° 0 mm 4 mps 741 mmHg 96%
    05:00 +14°C° 0 mm 4 mps 741 mmHg 96%
    06:00 +14°C° 0 mm 4 mps 740 mmHg 96%
    07:00 +14°C° 0.8 mm 4 mps 740 mmHg 94%
    08:00 +14°C° 0.8 mm 3 mps 740 mmHg 92%
    09:00 +16°C° 0.8 mm 3 mps 739 mmHg 91%
    10:00 +17°C° 0.7 mm 4 mps 739 mmHg 85%
    11:00 +17°C° 0.7 mm 5 mps 739 mmHg 78%
    12:00 +19°C° 0.7 mm 6 mps 739 mmHg 72%
    13:00 +17°C° 0.2 mm 6 mps 739 mmHg 72%
    14:00 +17°C° 0.2 mm 7 mps 739 mmHg 72%
    15:00 +17°C° 0.2 mm 7 mps 738 mmHg 72%
    16:00 +16°C° 1.1 mm 7 mps 738 mmHg 78%
    17:00 +14°C° 1.1 mm 7 mps 737 mmHg 84%
    18:00 +12°C° 1.1 mm 7 mps 737 mmHg 90%
    19:00 +12°C° 0.2 mm 7 mps 736 mmHg 89%
    20:00 +12°C° 0.2 mm 7 mps 736 mmHg 88%
    21:00 +12°C° 0.2 mm 7 mps 736 mmHg 87%
    22:00 +12°C° 0.2 mm 8 mps 735 mmHg 88%
    23:00 +13°C° 0.2 mm 8 mps 735 mmHg 89%

    25 Septiembre, Miércoles

    Tiempo Temperatura Precipitaciones Viento Presión Humedad
    00:00 +13°C° 0.2 mm 9 mps 734 mmHg 90%
    01:00 +12°C° 0.2 mm 8 mps 735 mmHg 88%
    02:00 +12°C° 0.2 mm 8 mps 735 mmHg 87%
    03:00 +12°C° 0.2 mm 8 mps 735 mmHg 86%
    04:00 +12°C° 0 mm 7 mps 735 mmHg 87%
    05:00 +11°C° 0 mm 7 mps 736 mmHg 88%
    06:00 +11°C° 0 mm 6 mps 736 mmHg 89%
    07:00 +13°C° 0 mm 6 mps 737 mmHg 86%
    08:00 +13°C° 0 mm 6 mps 737 mmHg 83%
    09:00 +14°C° 0 mm 6 mps 738 mmHg 80%
    10:00 +15°C° 0.2 mm 6 mps 739 mmHg 77%
    11:00 +16°C° 0.2 mm 6 mps 739 mmHg 74%
    12:00 +16°C° 0.2 mm 6 mps 740 mmHg 71%
    13:00 +16°C° 0.1 mm 6 mps 740 mmHg 70%
    14:00 +17°C° 0.1 mm 6 mps 740 mmHg 70%
    15:00 +17°C° 0.1 mm 6 mps 740 mmHg 70%
    16:00 +15°C° 0.1 mm 5 mps 740 mmHg 75%
    17:00 +14°C° 0.1 mm 4 mps 740 mmHg 81%
    18:00 +13°C° 0.1 mm 3 mps 739 mmHg 86%
    19:00 +12°C° 0 mm 3 mps 739 mmHg 88%
    20:00 +12°C° 0 mm 3 mps 740 mmHg 90%
    21:00 +12°C° 0 mm 3 mps 740 mmHg 92%
    22:00 +12°C° 0 mm 3 mps 739 mmHg 92%
    23:00 +12°C° 0 mm 3 mps 739 mmHg 93%

    26 Septiembre, Jueves

    Tiempo Temperatura Precipitaciones Viento Presión Humedad
    00:00 +13°C° 0 mm 4 mps 738 mmHg 93%
    01:00 +13°C° 1.9 mm 4 mps 737 mmHg 94%
    02:00 +14°C° 1.9 mm 4 mps 737 mmHg 95%
    03:00 +14°C° 1.9 mm 5 mps 736 mmHg 97%
    04:00 +14°C° 0.4 mm 5 mps 736 mmHg 95%
    05:00 +14°C° 0.4 mm 5 mps 736 mmHg 93%
    06:00 +14°C° 0.4 mm 6 mps 735 mmHg 91%
    07:00 +14°C° 0 mm 6 mps 736 mmHg 88%
    08:00 +15°C° 0 mm 7 mps 736 mmHg 85%
    09:00 +16°C° 0 mm 8 mps 736 mmHg 81%
    10:00 +16°C° 0.4 mm 8 mps 736 mmHg 78%
    11:00 +16°C° 0.4 mm 8 mps 737 mmHg 75%
    12:00 +16°C° 0.4 mm 8 mps 737 mmHg 72%
    13:00 +15°C° 0.3 mm 8 mps 737 mmHg 71%
    14:00 +15°C° 0.3 mm 8 mps 737 mmHg 71%
    15:00 +15°C° 0.3 mm 8 mps 737 mmHg 71%
    16:00 +14°C° 0.3 mm 7 mps 737 mmHg 75%
    17:00 +13°C° 0.3 mm 6 mps 737 mmHg 80%
    18:00 +12°C° 0.3 mm 5 mps 737 mmHg 84%
    19:00 +12°C° 0.3 mm 5 mps 737 mmHg 85%
    20:00 +10°C° 0.3 mm 6 mps 737 mmHg 86%
    21:00 +10°C° 0.3 mm 6 mps 738 mmHg 88%
    22:00 +10°C° 0.1 mm 6 mps 737 mmHg 88%
    23:00 +10°C° 0.1 mm 6 mps 737 mmHg 88%
    Mostrar más